#timestamp,LO_Frequency,Hit,StdDev 
1634670015.6,286046999.1,N
1634670035.4,286046998.7,N
1634670055.3,286047000.7,N
1634670075.1,286046998.7,N
1634670076.0,286046998.7,N
1634670095.8,286046999.6,N
1634670115.7,286046999.3,N
1634670135.5,286046999.0,N
1634670155.3,286046999.3,N
1634670175.2,286046998.6,N
1634670195.0,286046998.4,N
1634670195.9,286046998.4,N
1634670215.8,286046999.3,N
1634670235.6,286046998.6,N
1634670255.4,286046999.1,N
1634670275.3,286046997.1,Y
1634670295.1,286046999.2,P
1634670315.9,286046996.8,P
1634670335.7,286046999.3,N
1634670355.5,286047000.9,N
1634670375.4,286047001.0,N
1634670395.2,286046998.4,N
1634670415.0,286046996.5,N
1634670415.9,286046996.5,N
1634670435.8,286046997.3,N
1634670455.6,286046998.0,N
1634670475.5,286046996.3,N
1634670495.3,286046995.3,N
1634670515.1,286046995.3,N
1634670535.9,286046995.3,N
1634670555.7,286046996.8,N
1634670575.5,286046999.5,N
1634670595.4,286046998.9,N
1634670615.2,286046996.6,N
1634670635.1,286046996.5,N
1634670636.0,286046996.5,N
1634670655.8,286046998.1,N
1634670675.6,286047000.9,N
1634670695.5,286046998.4,N
1634670715.3,286046999.4,N
1634670735.1,286046998.5,N
1634670755.9,286046999.5,N
1634670775.7,286046996.7,N
1634670795.6,286046999.6,N
1634670815.4,286046997.1,N
1634670835.2,286046997.5,N
1634670855.1,286046997.8,N
1634670856.0,286046997.8,N
1634670875.8,286046997.7,N
1634670895.6,286046997.2,N
1634670915.5,286046997.0,N
1634670935.3,286046996.6,N
1634670955.2,286046998.7,N
1634670975.9,286046995.7,Y
1634670995.7,286046997.3,P
1634671015.6,286046997.2,P
1634671035.4,286046998.4,P
1634671055.3,286046998.2,Y
1634671075.1,286047002.6,P
1634671076.0,286047002.6,N
1634671095.8,286047001.7,N
1634671115.7,286047002.1,N
1634671135.5,286047002.5,N
1634671155.3,286047003.6,N
1634671175.2,286047005.9,Y
1634671195.0,286047005.6,P
1634671195.9,286047005.6,N
1634671215.8,286047007.4,P
1634671235.6,286047007.1,Y
1634671255.4,286047001.0,P
1634671275.3,286046999.8,N
1634671295.1,286046999.8,N
1634671315.9,286047002.5,N
1634671335.7,286046999.9,N
1634671355.5,286046999.0,N
1634671375.4,286046996.9,N
1634671395.2,286046996.6,N
1634671415.0,286046996.7,N
1634671415.9,286046996.7,N
1634671435.8,286046997.6,N
1634671455.6,286046996.2,N
1634671475.5,286046995.0,N
1634671495.3,286046996.2,N
1634671515.1,286046995.8,N
1634671535.9,286046995.5,N
1634671555.7,286046997.8,N
1634671575.5,286046996.4,N
1634671595.4,286046995.0,N
1634671615.2,286046997.5,N
1634671635.1,286046997.8,N
1634671636.0,286046997.8,N
1634671655.8,286046997.7,N
1634671675.6,286046995.9,N
1634671695.5,286046995.9,N
1634671715.3,286046995.9,N
1634671735.1,286046995.9,N
1634671755.9,286046996.2,N
1634671775.7,286046996.0,N
1634671795.6,286046995.1,N
1634671815.4,286046998.0,N
1634671835.2,286046996.4,N
1634671855.1,286046995.9,N
1634671856.0,286046995.9,N
1634671875.8,286046998.0,N
1634671895.7,286046995.0,Y
1634671915.5,286047000.5,P
1634671935.3,286047000.5,N
1634671955.2,286047000.9,N
1634671975.0,286047002.7,N
1634671975.9,286047002.7,N
1634671995.7,286047004.4,N
1634672015.6,286047005.7,N
1634672035.4,286047005.7,N
1634672055.3,286047005.3,N
1634672075.1,286047005.5,N
1634672076.0,286047005.5,N
1634672095.8,286047003.1,N
1634672115.7,286047001.9,N
1634672135.5,286047002.6,N
1634672155.3,286047002.2,N
1634672175.2,286047002.8,N
1634672195.0,286047000.0,N
1634672195.9,286047000.0,N
1634672215.8,286047002.7,N
1634672235.6,286046999.7,N
1634672255.4,286047002.6,N
1634672275.3,286047002.5,N
1634672295.1,286047004.2,N
1634672315.9,286047001.4,N
1634672335.7,286047002.8,N
1634672355.5,286047000.2,N
1634672375.4,286047002.3,N
1634672395.2,286047002.8,N
1634672415.0,286047002.8,N
1634672415.9,286047002.8,N
1634672435.8,286047001.5,N
1634672455.6,286047002.5,N
1634672475.5,286047001.9,N
1634672495.3,286047001.6,N
1634672515.1,286047001.6,N
1634672535.9,286047001.3,N
1634672555.7,286047001.6,N
1634672575.5,286047001.5,N
1634672595.4,286047001.7,N
1634672615.2,286047001.9,N
1634672635.1,286047004.4,Y
1634672636.0,286047004.4,P
1634672655.8,286046999.9,N
1634672675.6,286047002.6,N
1634672695.5,286046999.7,N
1634672715.3,286047002.4,N
1634672735.2,286047000.6,N
1634672755.9,286047001.2,N
1634672775.7,286046998.1,N
1634672795.6,286047000.4,N
1634672815.4,286046998.8,N
1634672835.2,286046998.2,N
1634672855.1,286047002.5,N
1634672856.0,286047002.5,N
1634672875.8,286047002.1,N
1634672895.7,286047002.2,N
1634672915.5,286047002.4,N
1634672935.3,286047000.3,N
1634672955.2,286047002.7,N
1634672975.0,286047001.6,N
1634672975.9,286047001.6,N
1634672995.7,286047002.5,N
1634673015.6,286047002.2,N
1634673035.4,286047001.9,N
1634673055.3,286047002.5,N
1634673075.1,286047002.5,N
1634673076.0,286047002.5,N
1634673095.8,286047003.7,N
1634673115.7,286047004.6,Y
1634673135.5,286047003.3,P
1634673155.3,286047001.3,N
1634673175.2,286047001.4,N
1634673195.0,286047002.6,Y
1634673195.9,286047002.6,P
1634673215.8,286047001.8,P
1634673235.6,286047002.7,P
1634673255.4,286047000.9,N
1634673275.3,286047001.2,N
1634673295.1,286046999.3,N
1634673315.9,286046996.8,N
1634673335.7,286046997.0,N
1634673355.5,286046997.3,N
1634673375.4,286046997.6,N
1634673395.2,286047001.1,N
1634673415.0,286047000.8,N
1634673415.9,286047000.8,N
1634673435.8,286047000.1,N
1634673455.6,286047000.2,N
1634673475.5,286047000.9,N
1634673495.3,286047000.0,N
1634673515.1,286046999.8,N
1634673535.9,286047001.9,N
1634673555.7,286047002.0,N
1634673575.5,286047003.5,N
1634673595.4,286047001.6,N
